Location: Stigler
(35.2540°N, 95.1230°W)
Time: 22:00:47
(UTC-06:00)

Cosmos 1271 Rocket - Pass Details

Date: 26 September 2017
Orbit: 499 x 548 km, 81.2° (Epoch: 16 December)

Event Time Altitude Azimuth Distance (km) Brightness Sun altitude
Rises 19:30:14 0° 203° (SSW) 2,585 6.6 -4.8°
Reaches altitude 10° 19:32:26 10° 211° (SSW) 1,711 5.8 -5.2°
Maximum altitude 19:35:58 39° 282° (WNW) 772 4.4 -5.9°
Drops below altitude 10° 19:39:35 10° 352° (N) 1,747 5.5 -6.7°
Sets 19:41:51 0° 0° (N) 2,647 6.3 -7.1°
